Willimantic, CT

3:30 AM EDT on May 30, 2017 (GMT -0400)
Windham

Weather History for KIJD - May, 2013

Change the Weather History Date:

Wednesday, May 15, 2013

  Actual Average Record
Temperature  
Mean Temperature 46 °F -  
Max Temperature 63 °F 69 °F 86 °F (1998)
Min Temperature 30 °F 41 °F 30 °F (1977)
Degree Days  
Heating Degree Days 19    
Moisture  
Dew Point 40 °F    
Average Humidity 84    
Maximum Humidity 100    
Minimum Humidity 36    
Precipitation  
Precipitation 0.07 in - - ()
Sea Level Pressure  
Sea Level Pressure 29.94 in    
Wind  
Wind Speed 2 mph (South)    
Max Wind Speed 18 mph    
Max Gust Speed 25 mph    
Visibility 8 miles    
Events Rain    
Averages and records for this station are not official NWS values.
T = Trace of Precipitation, MM = Missing Value Source: NWS Daily Summary

Daily Weather History Graph

Daily Weather History Graph

Search for Another Location

Airport or City:

Trip Planner

Search our weather history database for the weather conditions in past years. The results will help you decide how hot, cold, wet, or windy it might be!

Date:

Astronomy

May. 15, 2013 Rise Set
Actual Time 5:28 AM EDT 8:02 PM EDT
Civil Twilight 4:56 AM EDT 8:33 PM EDT
Nautical Twilight 4:17 AM EDT 9:13 PM EDT
Astronomical Twilight 3:32 AM EDT 9:58 PM EDT
Moon 10:02 AM EDT (5/15) No Moon Set
Length of Visible Light 15h 36m
Length of Day
14h 33m
Waxing Crescent, 26% of the Moon is Illuminated
May 15
Waxing Crescent
May 18
First Quarter
May 25
Full
May 31
Last Quarter
Jun 8
New

Hourly Weather History & Observations

Time (EDT) Temp. Dew Point Humidity Pressure Visibility Wind Dir Wind Speed Gust Speed Precip Events Conditions
12:52 AM 36.0 °F 32.0 °F 86% 30.09 in 10.0 mi Calm Calm - N/A   Clear
1:52 AM 35.1 °F 32.0 °F 89% 30.09 in 10.0 mi Calm Calm - N/A   Clear
2:04 AM 35.6 °F 32.0 °F 87% 30.08 in 10.0 mi Calm Calm - N/A   Scattered Clouds
2:29 AM 33.8 °F 32.0 °F 93% 30.08 in 10.0 mi Calm Calm - N/A   Scattered Clouds
2:52 AM 34.0 °F 30.9 °F 89% 30.08 in 10.0 mi Calm Calm - N/A   Clear
3:42 AM 33.8 °F 30.2 °F 87% 30.08 in 10.0 mi Calm Calm - N/A   Partly Cloudy
3:52 AM 33.1 °F 30.9 °F 92% 30.08 in 10.0 mi Calm Calm - N/A   Partly Cloudy
4:26 AM 32.0 °F 30.2 °F 93% 30.07 in 9.0 mi Calm Calm - N/A   Mostly Cloudy
4:52 AM 32.0 °F 30.9 °F 96% 30.07 in 10.0 mi Calm Calm - N/A   Overcast
5:28 AM 32.0 °F 30.2 °F 93% 30.06 in 9.0 mi Calm Calm - N/A   Scattered Clouds
5:52 AM 30.9 °F 28.9 °F 92% 30.07 in 8.0 mi Calm Calm - N/A   Clear
6:02 AM 32.0 °F 30.2 °F 93% 30.07 in 9.0 mi Calm Calm - N/A   Scattered Clouds
6:11 AM 32.0 °F 30.2 °F 93% 30.07 in 9.0 mi Calm Calm - N/A   Mostly Cloudy
6:23 AM 32.0 °F 30.2 °F 93% 30.07 in 1.2 mi Calm Calm - N/A   Overcast
6:32 AM 32.0 °F 32.0 °F 100% 30.08 in 0.8 mi Calm Calm - N/A   Overcast
6:39 AM 33.8 °F 32.0 °F 93% 30.07 in 2.5 mi Calm Calm - N/A   Mostly Cloudy
6:43 AM 33.8 °F 32.0 °F 93% 30.07 in 8.0 mi Calm Calm - N/A   Scattered Clouds
6:52 AM 34.0 °F 32.0 °F 92% 30.08 in 9.0 mi Calm Calm - N/A   Partly Cloudy
7:52 AM 39.9 °F 36.0 °F 86% 30.07 in 10.0 mi Calm Calm - N/A   Partly Cloudy
8:52 AM 48.9 °F 41.0 °F 74% 30.04 in 10.0 mi Calm Calm - N/A   Partly Cloudy
9:52 AM 55.0 °F 42.1 °F 62% 30.02 in 10.0 mi South 4.6 mph - N/A   Overcast
10:52 AM 60.1 °F 36.0 °F 41% 29.99 in 10.0 mi SSW 12.7 mph - N/A   Mostly Cloudy
11:52 AM 61.0 °F 34.0 °F 36% 29.98 in 10.0 mi SSW 9.2 mph 21.9 mph N/A   Clear
12:52 PM 62.1 °F 35.1 °F 37% 29.96 in 10.0 mi South 11.5 mph 23.0 mph N/A   Mostly Cloudy
1:52 PM 61.0 °F 37.0 °F 41% 29.89 in 10.0 mi SSW 18.4 mph 25.3 mph 0.00 in Rain Light Rain
2:52 PM 59.0 °F 46.9 °F 64% 29.89 in 10.0 mi South 10.4 mph - 0.00 in Rain Light Rain
3:52 PM 55.9 °F 52.0 °F 87% 29.85 in 6.0 mi Variable 5.8 mph - 0.04 in Rain Light Rain
4:10 PM 55.4 °F 51.8 °F 88% 29.85 in 6.0 mi SSE 6.9 mph - 0.02 in Rain Light Rain
4:52 PM 55.0 °F 51.1 °F 86% 29.79 in 10.0 mi South 9.2 mph 19.6 mph 0.03 in   Overcast
5:52 PM 55.9 °F 51.1 °F 84% 29.74 in 10.0 mi South 13.8 mph 24.2 mph N/A   Overcast
6:52 PM 57.9 °F 52.0 °F 81% 29.76 in 10.0 mi South 10.4 mph - N/A   Overcast
7:28 PM 57.2 °F 51.8 °F 82% 29.74 in 9.0 mi South 8.1 mph - N/A   Scattered Clouds
7:52 PM 57.0 °F 52.0 °F 83% 29.73 in 10.0 mi South 9.2 mph - N/A   Clear
8:52 PM 55.0 °F 52.0 °F 89% 29.72 in 10.0 mi South 4.6 mph - N/A   Clear
9:36 PM 55.4 °F 51.8 °F 88% 29.72 in 9.0 mi Calm Calm - N/A   Mostly Cloudy
9:45 PM 53.6 °F 51.8 °F 94% 29.72 in 9.0 mi SSW 3.5 mph - N/A   Overcast
9:52 PM 54.0 °F 52.0 °F 93% 29.72 in 8.0 mi SSW 3.5 mph - N/A   Overcast
10:52 PM 52.0 °F 51.1 °F 97% 29.72 in 6.0 mi Calm Calm - N/A   Mostly Cloudy
11:18 PM 51.8 °F 50.0 °F 94% 29.72 in 1.5 mi North 3.5 mph - N/A   Mostly Cloudy
11:29 PM 50.0 °F 48.2 °F 94% 29.72 in 3.0 mi North 4.6 mph - N/A   Mostly Cloudy
11:52 PM 51.1 °F 50.0 °F 96% 29.72 in 4.0 mi North 3.5 mph - N/A   Overcast